Belmar-Farmingdale, NJ

6:07 AM EST on December 13, 2019 (GMT -0500)
Allaire

Weather History for KBLM - October, 2019

Change the Weather History Date:

Tuesday, October 8, 2019

  Actual Average Record
Temperature  
Mean Temperature 61 °F -  
Max Temperature 63 °F 64 °F 78 °F (2017)
Min Temperature 59 °F 48 °F 35 °F (1999)
Degree Days  
Heating Degree Days 4    
Growing Degree Days 11 (Base 50)    
Moisture  
Dew Point 52 °F    
Average Humidity 75    
Maximum Humidity 93    
Minimum Humidity 58    
Precipitation  
Precipitation 0.00 in - - ()
Sea Level Pressure  
Sea Level Pressure 30.21 in    
Wind  
Wind Speed 10 mph ()    
Max Wind Speed 16 mph    
Max Gust Speed 22 mph    
Visibility 10.0 miles    
Events Rain    
Averages and records for this station are not official NWS values.
T = Trace of Precipitation, MM = Missing Value Source: Averaged Metar Reports

Daily Weather History Graph

Daily Weather History Graph

Search for Another Location

Airport or City:

Astronomy

Oct. 08, 2019 Rise Set
Actual Time 6:59 AM EDT 6:27 PM EDT
Civil Twilight 6:32 AM EDT 6:54 PM EDT
Nautical Twilight 6:00 AM EDT 7:26 PM EDT
Astronomical Twilight 5:29 AM EDT 7:57 PM EDT
Moon 4:25 PM EDT (10/8) 1:46 AM EDT (10/8)
Length of Visible Light 12h 22m
Length of Day
11h 28m
Waxing Gibbous, 77% of the Moon is Illuminated
Oct 8
Waxing Gibbous
Oct 13
Full
Oct 21
Last Quarter
Oct 27
New
Nov 4
First Quarter

Hourly Weather History & Observations

Time (EDT) Temp. Dew Point Humidity Pressure Visibility Wind Dir Wind Speed Gust Speed Precip Events Conditions
12:32 AM 60.8 °F 57.2 °F 88% 30.19 in 10.0 mi North 11.5 mph - 0.00 in   Overcast
12:46 AM 60.8 °F 57.2 °F 88% 30.19 in 10.0 mi North 10.4 mph 19.6 mph 0.00 in   Overcast
12:56 AM 61.0 °F 57.9 °F 90% 30.19 in 10.0 mi North 10.4 mph - 0.00 in Rain Light Rain
1:42 AM 60.8 °F 55.4 °F 82% 30.19 in 10.0 mi North 10.4 mph - 0.00 in   Overcast
1:56 AM 61.0 °F 55.9 °F 83% 30.19 in 10.0 mi North 11.5 mph - 0.00 in   Overcast
2:56 AM 60.1 °F 57.0 °F 90% 30.18 in 10.0 mi North 6.9 mph - N/A   Overcast
3:56 AM 59.0 °F 57.0 °F 93% 30.19 in 10.0 mi North 11.5 mph - 0.00 in Rain Light Rain
4:56 AM 59.0 °F 57.0 °F 93% 30.20 in 10.0 mi North 8.1 mph - 0.00 in   Overcast
5:30 AM 59.0 °F 55.4 °F 88% 30.21 in 10.0 mi North 10.4 mph - N/A   Overcast
5:54 AM 59.0 °F 55.4 °F 88% 30.22 in 10.0 mi North 10.4 mph 18.4 mph N/A   Overcast
5:56 AM 59.0 °F 55.0 °F 87% 30.22 in 10.0 mi North 11.5 mph 18.4 mph N/A   Overcast
6:20 AM 59.0 °F 53.6 °F 82% 30.23 in 10.0 mi NNE 8.1 mph - N/A   Overcast
6:33 AM 59.0 °F 53.6 °F 82% 30.23 in 10.0 mi North 9.2 mph - N/A   Overcast
6:56 AM 59.0 °F 53.1 °F 81% 30.23 in 10.0 mi North 9.2 mph - N/A   Overcast
7:56 AM 60.1 °F 52.0 °F 75% 30.24 in 10.0 mi NE 10.4 mph - N/A   Overcast
8:56 AM 60.1 °F 53.1 °F 78% 30.25 in 10.0 mi North 11.5 mph - N/A   Overcast
9:56 AM 60.1 °F 52.0 °F 75% 30.25 in 10.0 mi NE 11.5 mph - N/A   Overcast
10:56 AM 62.1 °F 50.0 °F 65% 30.25 in 10.0 mi NNE 10.4 mph - N/A   Scattered Clouds
11:56 AM 62.1 °F 48.9 °F 62% 30.23 in 10.0 mi NNE 10.4 mph - N/A   Clear
12:56 PM 62.1 °F 48.0 °F 60% 30.23 in 10.0 mi NNE 10.4 mph 19.6 mph N/A   Clear
1:56 PM 62.1 °F 48.0 °F 60% 30.21 in 10.0 mi NNE 11.5 mph - N/A   Clear
2:56 PM 62.1 °F 50.0 °F 65% 30.19 in 10.0 mi North 11.5 mph 20.7 mph N/A   Clear
3:56 PM 62.1 °F 48.9 °F 62% 30.19 in 10.0 mi NNE 16.1 mph 21.9 mph N/A   Clear
4:56 PM 63.0 °F 48.9 °F 60% 30.20 in 10.0 mi NE 15.0 mph - N/A   Scattered Clouds
5:56 PM 62.1 °F 48.0 °F 60% 30.20 in 10.0 mi NNE 10.4 mph - N/A   Mostly Cloudy
6:56 PM 62.1 °F 46.9 °F 58% 30.19 in 10.0 mi NNE 13.8 mph 18.4 mph N/A   Clear
7:56 PM 61.0 °F 48.0 °F 62% 30.19 in 10.0 mi NNE 12.7 mph - N/A   Clear
8:56 PM 61.0 °F 50.0 °F 67% 30.20 in 10.0 mi NNE 11.5 mph - N/A   Clear
9:56 PM 60.1 °F 51.1 °F 72% 30.20 in 10.0 mi NNE 16.1 mph 21.9 mph N/A   Clear
10:56 PM 60.1 °F 50.0 °F 69% 30.21 in 10.0 mi NE 12.7 mph - N/A   Mostly Cloudy
11:56 PM 61.0 °F 48.9 °F 64% 30.20 in 10.0 mi NE 15.0 mph 20.7 mph N/A   Clear